Location: Unspecified
(42.0334°N, 93.6656°W)
Time: 09:45:53
(UTC-05:00)

Amateur Radio Satellites - All Passes

Search period start: 29 July 2014 09:15
Search period end: 30 July 2014 09:15
Location: Unspecified, 42.0334°N, 93.6656°W

Satellite Date Start Highest point End Downlink Frequencies (MHz)
Time Altitude Azimuth
JAS-2 29 Jul 09:34:32 09:37:15 13° 306° (NW) 09:39:51 435.800 - 435.900 CW/SSB, 435.910 FM
HO-68 29 Jul 09:56:02 10:02:52 46° 100° (E) 10:09:38 435.675 MHz FM
Sapphire 29 Jul 10:13:43 10:19:09 67° 58° (ENE) 10:24:32 437.095 MHz 1200 baud AX-25 AFSK
KITSAT 1 29 Jul 10:16:32 10:20:59 15° 340° (NNW) 10:25:26 435.175 FM
UKube-1 29 Jul 10:18:19 10:22:31 45° 100° (E) 10:26:40 145.840 MHz, 145.915 MHz
PCSat 29 Jul 10:47:11 10:52:34 63° 245° (WSW) 10:57:53 145.825 MHz
Oscar 11 29 Jul 11:03:02 11:07:23 77° 102° (ESE) 11:11:43 145.825 FM, Beacon 2401.500 USB
FUNcube-1 29 Jul 11:25:29 11:29:32 48° 99° (E) 11:33:36 145.950 - 145.970 MHz USB
HO-68 29 Jul 11:44:01 11:50:23 36° 298° (WNW) 11:56:44 435.675 MHz FM
SO-50 29 Jul 11:53:13 11:55:46 15° 109° (ESE) 11:58:20 436.795 FM
UKube-1 29 Jul 11:55:29 11:58:22 18° 296° (WNW) 12:01:15 145.840 MHz, 145.915 MHz
Sapphire 29 Jul 11:58:31 12:01:59 17° 255° (WSW) 12:05:26 437.095 MHz 1200 baud AX-25 AFSK
RS-15 29 Jul 12:02:53 12:09:27 18° 99° (E) 12:15:54 29.354 - 29.394 USB, Beacon 29.352 USB
KITSAT 1 29 Jul 12:17:20 12:20:39 13° 11° (N) 12:23:57 435.175 FM
Oscar 11 29 Jul 12:41:45 12:42:57 11° 299° (WNW) 12:44:09 145.825 FM, Beacon 2401.500 USB
FUNcube-1 29 Jul 13:03:07 13:05:34 15° 296° (WNW) 13:08:02 145.950 - 145.970 MHz USB
Oscar 19 29 Jul 13:08:57 13:13:22 30° 67° (ENE) 13:17:48 437.125 CW, 437.150 USB
JAS-1B 29 Jul 13:12:32 13:19:21 24° 52° (NE) 13:26:29 435.800 - 435.900 CW/SSB
AO-Echo 29 Jul 13:22:27 13:26:20 21° 63° (ENE) 13:30:14 ?
SO-50 29 Jul 13:31:23 13:35:48 60° 306° (NW) 13:40:19 436.795 FM
Oscar 16 29 Jul 13:36:42 13:41:42 57° 72° (ENE) 13:46:44 437.025 USB, Beacon 2401.1428
UOSAT-12 29 Jul 13:51:06 13:54:09 18° 110° (ESE) 13:57:15 437.025 FM, 437.400 FM
ITAMSAT 1 29 Jul 13:58:44 14:03:36 42° 69° (ENE) 14:08:29 435.822 SSB
RS-15 29 Jul 14:08:49 14:19:56 79° 119° (ESE) 14:30:51 29.354 - 29.394 USB, Beacon 29.352 USB
KITSAT 1 29 Jul 14:12:23 14:19:18 30° 40° (NE) 14:26:10 435.175 FM
Uribyol 2 29 Jul 14:17:44 14:22:53 66° 73° (ENE) 14:28:02 436.500 FM
AO-27 29 Jul 14:17:44 14:22:53 63° 73° (ENE) 14:28:04 436.795 MHz FM
TMSAT-1 29 Jul 14:19:51 14:23:42 21° 63° (ENE) 14:27:34 436.925 FM
Gurwin Techsat 1B 29 Jul 14:43:08 14:48:09 44° 70° (ENE) 14:53:11 435.225 FM
AO-7 29 Jul 14:47:55 14:53:48 22° 51° (NE) 14:59:41 29.400 - 29.500 MHz
Oscar 19 29 Jul 14:48:03 14:52:37 33° 263° (W) 14:57:15 437.125 CW, 437.150 USB
JAS-1B 29 Jul 14:59:23 15:08:19 83° 73° (ENE) 15:18:16 435.800 - 435.900 CW/SSB
AO-Echo 29 Jul 14:59:29 15:04:41 55° 260° (W) 15:09:55 ?
SO-50 29 Jul 15:15:49 15:17:20 11° 327° (NNW) 15:18:53 436.795 FM
Oscar 16 29 Jul 15:18:05 15:21:25 17° 269° (W) 15:24:47 437.025 USB, Beacon 2401.1428
Uosat F 29 Jul 15:20:40 15:23:54 17° 61° (ENE) 15:27:09 435.120 FM
UOSAT-12 29 Jul 15:29:19 15:33:51 56° 307° (NW) 15:38:29 437.025 FM, 437.400 FM
Saudisat 1A 29 Jul 15:31:41 15:34:56 20° 42° (NE) 15:38:09 436.775 MHz
ITAMSAT 1 29 Jul 15:39:00 15:43:13 25° 266° (W) 15:47:28 435.822 SSB
TMSAT-1 29 Jul 15:58:02 16:03:13 54° 260° (W) 16:08:26 436.925 FM
AO-27 29 Jul 15:59:39 16:02:50 16° 269° (W) 16:06:02 436.795 MHz FM
Uribyol 2 29 Jul 15:59:48 16:02:48 15° 269° (W) 16:05:49 436.500 FM
KITSAT 1 29 Jul 16:07:27 16:15:32 78° 242° (WSW) 16:23:34 435.175 FM
OPAL 29 Jul 16:13:23 16:16:13 15° 93° (E) 16:19:03 ?
RS-15 29 Jul 16:23:31 16:33:25 36° 325° (NW) 16:43:18 29.354 - 29.394 USB, Beacon 29.352 USB
Gurwin Techsat 1B 29 Jul 16:24:04 16:28:17 24° 266° (W) 16:32:32 435.225 FM
AO-7 29 Jul 16:37:06 16:45:29 87° 71° (ENE) 16:53:54 29.400 - 29.500 MHz
JAS-1B 29 Jul 16:52:54 16:59:51 25° 274° (W) 17:07:23 435.800 - 435.900 CW/SSB
Uosat F 29 Jul 16:57:12 17:02:11 62° 258° (WSW) 17:07:12 435.120 FM
Saudisat 1A 29 Jul 17:10:32 17:14:53 58° 241° (WSW) 17:19:11 436.775 MHz
UOSAT-12 29 Jul 17:13:34 17:15:04 11° 328° (NNW) 17:16:34 437.025 FM, 437.400 FM
Hamsat 29 Jul 17:21:50 17:24:31 17° 65° (ENE) 17:27:14 145.90 MHz
OPAL 29 Jul 17:50:29 17:55:32 68° 289° (WNW) 18:00:37 ?
JAS-2 29 Jul 17:57:21 18:04:42 48° 69° (ENE) 18:11:35 435.800 - 435.900 CW/SSB, 435.910 FM
KITSAT 1 29 Jul 18:05:32 18:09:36 15° 261° (W) 18:13:39 435.175 FM
AO-7 29 Jul 18:33:37 18:39:13 19° 269° (W) 18:44:52 29.400 - 29.500 MHz
STRAND 1 29 Jul 18:39:04 18:40:06 11° 88° (E) 18:41:07 ?
RS-15 29 Jul 18:42:24 18:50:14 21° 359° (N) 18:58:09 29.354 - 29.394 USB, Beacon 29.352 USB
SO-67 29 Jul 18:55:44 18:58:32 23° 70° (ENE) 19:01:21 435.3500 MHz FM
Hamsat 29 Jul 18:56:11 19:00:09 43° 262° (W) 19:04:10 145.90 MHz
JAS-2 29 Jul 19:42:40 19:49:45 37° 264° (W) 19:56:29 435.800 - 435.900 CW/SSB, 435.910 FM
STRAND 1 29 Jul 20:14:49 20:19:57 88° 285° (WNW) 20:25:03 ?
SO-50 29 Jul 20:22:40 20:26:16 21° 42° (NE) 20:29:54 436.795 FM
HO-68 29 Jul 20:25:12 20:31:36 37° 62° (ENE) 20:38:01 435.675 MHz FM
SO-67 29 Jul 20:28:59 20:31:34 19° 266° (W) 20:34:09 435.3500 MHz FM
RS-15 29 Jul 20:57:24 21:07:12 35° 34° (NE) 21:17:11 29.354 - 29.394 USB, Beacon 29.352 USB
UKube-1 29 Jul 21:14:11 21:18:18 42° 71° (ENE) 21:22:27 145.840 MHz, 145.915 MHz
MaSat-1 29 Jul 21:26:51 21:30:49 55° 111° (ESE) 21:35:26 437.345 MHz
STRAND 1 29 Jul 21:56:30 21:58:21 12° 302° (WNW) 22:00:12 ?
Oscar 11 29 Jul 21:58:19 22:02:34 62° 74° (ENE) 22:06:50 145.825 FM, Beacon 2401.500 USB
SO-50 29 Jul 22:02:31 22:07:14 62° 240° (WSW) 22:11:59 436.795 FM
HO-68 29 Jul 22:12:21 22:19:09 45° 261° (W) 22:25:59 435.675 MHz FM
UOSAT-12 29 Jul 22:19:04 22:22:45 22° 42° (NE) 22:26:24 437.025 FM, 437.400 FM
FUNcube-1 29 Jul 22:22:24 22:26:27 41° 72° (ENE) 22:30:26 145.950 - 145.970 MHz USB
ISS 29 Jul 22:40:51 22:42:33 13° 130° (SE) 22:44:15 145.800 FM
UKube-1 29 Jul 22:51:45 22:54:42 18° 267° (W) 22:57:41 145.840 MHz, 145.915 MHz
MaSat-1 29 Jul 23:05:29 23:08:37 19° 313° (NW) 23:12:03 437.345 MHz
RS-15 29 Jul 23:09:50 23:20:55 85° 240° (WSW) 23:32:24 29.354 - 29.394 USB, Beacon 29.352 USB
Oscar 11 29 Jul 23:37:38 23:39:10 12° 270° (W) 23:40:41 145.825 FM, Beacon 2401.500 USB
PCSat 29 Jul 23:48:32 23:51:38 16° 104° (ESE) 23:54:45 145.825 MHz
UOSAT-12 29 Jul 23:58:37 00:03:16 58° 241° (WSW) 00:07:50 437.025 FM, 437.400 FM
FUNcube-1 30 Jul 00:00:09 00:03:01 17° 267° (W) 00:05:51 145.950 - 145.970 MHz USB
ISS 30 Jul 00:15:31 00:18:51 75° 327° (NNW) 00:22:12 145.800 FM
Sapphire 30 Jul 00:55:49 01:01:05 57° 115° (ESE) 01:06:24 437.095 MHz 1200 baud AX-25 AFSK
AO-40 30 Jul 01:04:32 03:27:36 30° 201° (SSW) 08:05:30 Beacon 2401.320
RS-15 30 Jul 01:24:16 01:31:38 21° 260° (W) 01:39:13 29.354 - 29.394 USB, Beacon 29.352 USB
PCSat 30 Jul 01:29:00 01:34:24 73° 301° (WNW) 01:39:50 145.825 MHz
Oscar 16 30 Jul 01:48:52 01:52:34 20° 92° (E) 01:56:15 437.025 USB, Beacon 2401.1428
ISS 30 Jul 01:53:25 01:56:00 20° 345° (NNW) 01:58:36 145.800 FM
ITAMSAT 1 30 Jul 02:12:48 02:15:24 14° 90° (E) 02:17:59 435.822 SSB
Uribyol 2 30 Jul 02:30:52 02:34:51 22° 94° (E) 02:38:49 436.500 FM
AO-27 30 Jul 02:31:14 02:35:10 22° 93° (E) 02:39:05 436.795 MHz FM
Sapphire 30 Jul 02:40:30 02:44:52 25° 314° (NW) 02:49:17 437.095 MHz 1200 baud AX-25 AFSK
JAS-1B 30 Jul 02:46:58 02:54:39 29° 88° (E) 03:01:22 435.800 - 435.900 CW/SSB
Oscar 19 30 Jul 02:58:27 03:03:39 84° 104° (ESE) 03:08:50 437.125 CW, 437.150 USB
Gurwin Techsat 1B 30 Jul 03:00:00 03:03:24 17° 91° (E) 03:06:46 435.225 FM
AO-Echo 30 Jul 03:06:42 03:11:36 48° 99° (E) 03:16:19 ?
PCSat 30 Jul 03:15:51 03:18:48 15° 322° (NW) 03:21:45 145.825 MHz
Oscar 16 30 Jul 03:27:12 03:32:12 52° 289° (WNW) 03:37:12 437.025 USB, Beacon 2401.1428
OPAL 30 Jul 03:28:14 03:32:25 28° 64° (ENE) 03:36:37 ?
ISS 30 Jul 03:31:24 03:33:38 16° 6° (N) 03:35:53 145.800 FM
ITAMSAT 1 30 Jul 03:50:15 03:55:26 72° 286° (WNW) 04:00:33 435.822 SSB
Uribyol 2 30 Jul 04:09:38 04:14:32 45° 290° (WNW) 04:19:25 436.500 FM
AO-27 30 Jul 04:09:57 04:14:55 47° 290° (WNW) 04:19:50 436.795 MHz FM
TMSAT-1 30 Jul 04:13:21 04:18:35 59° 101° (E) 04:23:47 436.925 FM
JAS-1B 30 Jul 04:36:35 04:45:55 68° 291° (WNW) 04:53:52 435.800 - 435.900 CW/SSB
Gurwin Techsat 1B 30 Jul 04:38:32 04:43:47 62° 288° (WNW) 04:49:00 435.225 FM
AO-7 30 Jul 04:39:04 04:46:01 28° 95° (E) 04:52:52 29.400 - 29.500 MHz
Oscar 19 30 Jul 04:39:49 04:42:17 14° 301° (WNW) 04:44:44 437.125 CW, 437.150 USB
KITSAT 1 30 Jul 04:45:59 04:49:27 13° 98° (E) 04:52:55 435.175 FM
AO-Echo 30 Jul 04:46:16 04:50:00 21° 297° (WNW) 04:53:38 ?
Uosat F 30 Jul 05:04:40 05:09:22 39° 98° (E) 05:14:01 435.120 FM
OPAL 30 Jul 05:06:42 05:11:11 34° 261° (W) 05:15:42 ?
ISS 30 Jul 05:07:56 05:11:04 36° 26° (NNE) 05:14:13 145.800 FM
MaSat-1 30 Jul 05:45:03 05:49:08 22° 49° (NE) 05:53:05 437.345 MHz
STRAND 1 30 Jul 05:54:07 05:57:36 19° 62° (ENE) 06:01:04 ?
TMSAT-1 30 Jul 05:54:23 05:58:02 19° 298° (WNW) 06:01:42 436.925 FM
PANSAT 30 Jul 06:03:43 06:04:38 11° 177° (S) 06:05:33 not established
JAS-1B 30 Jul 06:28:54 06:34:28 18° 313° (NW) 06:39:42 435.800 - 435.900 CW/SSB
AO-7 30 Jul 06:31:05 06:39:18 65° 293° (WNW) 06:47:28 29.400 - 29.500 MHz
KITSAT 1 30 Jul 06:35:22 06:43:25 73° 117° (ESE) 06:51:29 435.175 FM
Hamsat 30 Jul 06:41:27 06:45:18 31° 96° (E) 06:49:09 145.90 MHz
Uosat F 30 Jul 06:43:52 06:47:57 26° 295° (WNW) 06:52:01 435.120 FM
ISS 30 Jul 06:44:42 06:47:46 33° 223° (SW) 06:50:49 145.800 FM
JAS-2 30 Jul 06:52:45 06:57:57 32° 94° (E) 07:02:43 435.800 - 435.900 CW/SSB, 435.910 FM
Saudisat 1A 30 Jul 07:17:34 07:21:29 32° 115° (ESE) 07:25:26 436.775 MHz
MaSat-1 30 Jul 07:21:42 07:26:56 62° 248° (WSW) 07:31:50 437.345 MHz
STRAND 1 30 Jul 07:31:15 07:36:19 59° 259° (W) 07:41:24 ?
SO-67 30 Jul 07:51:50 07:54:48 26° 96° (E) 07:57:45 435.3500 MHz FM
Sapphire 30 Jul 08:02:31 08:03:53 11° 33° (NNE) 08:05:14 437.095 MHz 1200 baud AX-25 AFSK
Hamsat 30 Jul 08:17:40 08:21:07 24° 292° (WNW) 08:24:35 145.90 MHz
AO-7 30 Jul 08:26:03 08:30:31 16° 314° (NW) 08:34:59 29.400 - 29.500 MHz
KITSAT 1 30 Jul 08:32:29 08:39:31 32° 319° (NW) 08:46:36 435.175 FM
PCSat 30 Jul 08:34:13 08:37:55 18° 42° (NE) 08:41:36 145.825 MHz
JAS-2 30 Jul 08:37:47 08:43:04 34° 295° (WNW) 08:47:53 435.800 - 435.900 CW/SSB, 435.910 FM
Saudisat 1A 30 Jul 08:57:08 09:01:03 30° 313° (NW) 09:05:00 436.775 MHz
